Weather in Nizhankovichi

Ukraine / Lviv District     49°40′49″N   22°48′20″E
temp.,
°C
wind,
m/s
gust,
m/s
humid.,
%
clouds,
%
prec.,
mm/h
press.,
hPa
HPBL,
m
5 august, thu
thu500:00+15s1191100 0.0 101411
03:00+14se119391 0.0 101311
06:00+15e1195100 0.1 101111
09:00+16ese1194100 0.3 101023
12:00+23e2461100 0.0 1009634
15:00+23e4861100 0.0 1006351
18:00+19e1186100 1.4 100432
21:00+16ne0199100 8.6 100222
6 august, fri
fri600:00+16se38965 0.8 1000195
03:00+16ssw6138979 0.8 999776
06:00+16sw61290100 0.2 10001023
09:00+16wsw71487100 0.3 1002936
12:00+17wsw61181100 0.1 1004949
15:00+15w61188100 0.3 1006816
18:00+18w587074 0.1 10071107
21:00+15w410810 0.1 1007484
7 august, sat
sat700:00+13sw33950 0.0 100960
03:00+13sw38922 0.0 1009130
06:00+14sw411835 0.0 1009246
09:00+19wsw59680 0.0 1010485
12:00+23w575318 0.0 10111625
15:00+25w57437 0.0 10112219
18:00+25wnw34462 0.0 10101552
21:00+18e117718 0.0 101111
8 august, sun
sun800:00+16se228723 0.0 101218
03:00+15sse22735 0.0 101115
06:00+15sse22690 0.0 101119
09:00+23sse3125222 0.0 1010448
12:00+30s612315 0.0 10101768
15:00+31sw610305 0.0 10102040
18:00+30nw46425 0.0 10111378
21:00+21wnw23815 0.0 101456
9 august, mon
mon900:00+18nw22925 0.1 101638
03:00+17sw4698100 4.9 1017190
06:00+17w2398100 8.5 1018134
09:00+15wnw3896100 8.8 1020488
12:00+18nw348293 0.0 1021688
15:00+23nne225660 0.1 10201321
18:00+23ne225544 0.0 10201336
21:00+18se2282100 0.0 102015